EW1970 Weather Reports


time (UTC)temp
C
wind
direction
speed
KPH
gust
KPH
rain 1hr
cm
rain 24hr
cm
rain mn
cm
humidity
%
barometer
mb
20260510113018 19 289 0.0 0.0 0.00 0.00 0.00 90 1012.4
20260510111506 19 289 0.0 3.2 0.00 0.00 0.00 90 1012.3
20260510110022 20 289 0.0 3.2 0.00 0.00 0.00 89 1012.3
20260510104511 20 257 0.0 3.2 0.00 0.00 0.00 88 1012.1
20260510103019 20 246 0.0 3.2 0.00 0.00 0.00 87 1011.8
20260510101522 20 269 1.6 4.8 0.00 0.00 0.00 87 1011.8
20260510100008 20 26 0.0 3.2 0.00 0.00 0.00 87 1011.4
20260510094511 20 156 0.0 6.4 0.00 0.00 0.00 87 1011.5
20260510093022 21 110 0.0 6.4 0.00 0.00 0.00 86 1011.5
20260510091523 21 5 0.0 4.8 0.00 0.00 0.00 86 1011.4
20260510090040 21 196 0.0 9.7 0.00 0.00 0.00 86 1011.4
20260510084517 21 28 0.0 4.8 0.00 0.00 0.00 85 1011.5
20260510083014 21 92 0.0 6.4 0.00 0.00 0.00 84 1011.6
20260510081518 21 246 0.0 4.8 0.00 0.00 0.00 84 1011.6
20260510080023 21 123 0.0 4.8 0.00 0.00 0.00 84 1011.9
20260510074526 21 118 0.0 3.2 0.00 0.00 0.00 82 1011.8
20260510073013 21 269 0.0 3.2 0.00 0.00 0.00 81 1011.9
20260510071520 21 209 0.0 4.8 0.00 0.00 0.00 81 1011.9
20260510070020 22 117 0.0 3.2 0.00 0.00 0.00 80 1011.9
20260510064528 22 100 0.0 8.0 0.00 0.00 0.00 79 1011.9
20260510063026 22 169 0.0 9.7 0.00 0.00 0.00 78 1011.9
20260510061515 22 138 1.6 4.8 0.00 0.00 0.00 77 1011.8
20260510060021 22 153 0.0 4.8 0.00 0.00 0.00 77 1011.8
20260510054526 22 109 0.0 1.6 0.00 0.00 0.00 78 1011.7
20260510053004 22 136 0.0 3.2 0.00 0.00 0.00 80 1011.7
20260510051506 22 134 0.0 3.2 0.00 0.00 0.00 84 1011.6
20260510050005 22 115 0.0 1.6 0.00 0.00 0.00 85 1011.8
20260510044505 22 117 0.0 3.2 0.00 0.00 0.00 87 1011.7
20260510043010 22 139 0.0 3.2 0.00 0.00 0.00 85 1011.7
20260510041503 22 117 0.0 0.0 0.00 0.00 0.00 84 1011.6
20260510040010 23 117 0.0 0.0 0.00 0.00 0.00 83 1011.5
20260510034506 23 117 0.0 1.6 0.00 0.00 0.00 82 1011.5
20260510033004 23 155 0.0 0.0 0.00 0.00 0.00 81 1011.4
20260510031506 24 155 0.0 4.8 0.00 0.00 0.00 80 1011.2
20260510030008 25 157 0.0 1.6 0.00 0.00 0.00 78 1011.0
20260510024508 25 144 0.0 6.4 0.00 0.00 0.00 77 1010.8
20260510023010 25 67 0.0 9.7 0.00 0.00 0.00 76 1010.6
20260510021508 25 132 0.0 0.0 0.00 0.00 0.00 75 1010.2
20260510020008 25 144 0.0 3.2 0.00 0.00 0.00 72 1010.0
20260510014512 25 123 0.0 3.2 0.00 0.00 0.00 71 1009.7
20260510013014 26 123 0.0 3.2 0.00 0.00 0.00 68 1009.6
20260510011512 26 130 0.0 4.8 0.00 0.00 0.00 68 1009.6
20260510010008 26 148 0.0 3.2 0.00 0.00 0.00 67 1009.5
20260510004513 27 151 0.0 3.2 0.00 0.00 0.00 66 1009.4
20260510003021 27 106 0.0 4.8 0.00 0.00 0.00 66 1009.3
20260510001514 27 81 1.6 8.0 0.00 0.00 0.00 67 1009.1
20260510000017 28 62 0.0 6.4 0.00 0.00 0.00 65 1009.0
20260509234515 28 170 0.0 6.4 0.00 0.00 0.00 66 1008.8
20260509233023 29 352 0.0 6.4 0.00 0.00 0.00 62 1008.8
20260509231516 29 24 0.0 4.8 0.00 0.00 0.00 63 1008.7
20260509230018 30 103 1.6 4.8 0.00 0.00 0.00 60 1008.8
20260509224517 30 128 1.6 6.4 0.00 0.00 0.00 59 1008.8
20260509223003 30 125 1.6 6.4 0.00 0.00 0.00 58 1008.7
20260509221503 30 63 1.6 11.3 0.00 0.00 0.00 57 1008.7
20260509220006 31 103 0.0 6.4 0.00 0.00 0.00 58 1008.7
20260509214509 31 96 0.0 4.8 0.00 0.00 0.00 56 1008.9
20260509213004 31 72 0.0 3.2 0.00 0.00 0.00 53 1009.1
20260509211504 31 125 0.0 3.2 0.00 0.00 0.00 55 1009.2
20260509210008 31 111 0.0 8.0 0.00 0.00 0.00 57 1009.5
20260509204507 30 117 0.0 4.8 0.00 0.00 0.00 60 1009.7
20260509203022 30 20 0.0 9.7 0.00 0.00 0.00 52 1009.9
20260509201502 29 20 1.6 16.1 0.00 0.00 0.00 54 1010.3
20260509200004 28 113 6.4 24.1 0.00 0.00 0.00 53 1010.8
20260509194505 27 59 0.0 14.5 0.00 0.00 0.00 57 1010.9
20260509193010 30 321 1.6 14.5 0.00 0.00 0.00 64 1010.6
20260509191512 30 290 3.2 12.9 0.00 0.00 0.00 63 1010.3
20260509190005 29 257 1.6 16.1 0.00 0.00 0.00 68 1010.5
20260509184511 30 16 3.2 9.7 0.00 0.00 0.00 66 1010.8
20260509183013 28 53 0.0 12.9 0.00 0.00 0.00 66 1011.1
20260509181513 30 317 1.6 9.7 0.00 0.00 0.00 65 1011.2
20260509180020 30 288 1.6 8.0 0.00 0.00 0.00 71 1011.5
20260509174504 28 234 0.0 6.4 0.00 0.00 0.00 72 1011.5
20260509173003 27 293 1.6 4.8 0.00 0.00 0.00 73 1011.6
20260509171509 28 219 3.2 9.7 0.00 0.00 0.00 74 1012.1
20260509170016 28 296 3.2 11.3 0.00 0.00 0.00 72 1012.3
20260509164519 28 302 3.2 8.0 0.00 0.00 0.00 74 1012.1
20260509163007 27 274 3.2 8.0 0.00 0.00 0.00 80 1012.2
20260509161509 27 310 3.2 8.0 0.00 0.00 0.00 76 1012.2
20260509160012 26 271 4.8 12.9 0.00 0.00 0.00 81 1011.9
20260509154522 26 252 1.6 8.0 0.00 0.00 0.00 84 1011.9
20260509153023 26 102 3.2 11.3 0.00 0.00 0.00 84 1011.8
20260509151507 25 234 3.2 14.5 0.00 0.00 0.00 85 1011.2
20260509150013 25 258 3.2 12.9 0.00 0.00 0.00 86 1011.3
20260509144524 25 117 0.0 8.0 0.00 0.00 0.00 87 1011.2
20260509143021 24 252 0.0 4.8 0.00 0.00 0.00 88 1011.2
20260509141528 23 178 1.6 4.8 0.00 0.00 0.00 90 1011.0
20260509140008 23 269 0.0 4.8 0.00 0.00 0.00 92 1010.7
20260509134518 22 121 1.6 6.4 0.00 0.00 0.00 93 1010.6
20260509133008 22 250 1.6 6.4 0.00 0.00 0.00 93 1010.9
20260509131505 21 111 0.0 4.8 0.00 0.00 0.00 93 1010.9
20260509130009 21 161 0.0 3.2 0.00 0.00 0.00 93 1011.2
20260509124529 21 287 0.0 3.2 0.00 0.00 0.00 93 1011.4
20260509123007 21 270 0.0 4.8 0.00 0.00 0.00 93 1011.1
20260509121506 21 352 0.0 3.2 0.00 0.00 0.00 93 1011.0
20260509120010 21 352 0.0 3.2 0.00 0.00 0.00 93 1011.1
20260509114512 21 352 0.0 1.6 0.00 0.00 0.00 93 1011.0